FW5955 Weather Reports


time (UTC)temp
C
wind
direction
speed
KPH
gust
KPH
rain 1hr
cm
rain 24hr
cm
rain mn
cm
humidity
%
barometer
mb
20260901114555 17 259 4.8 9.7 0.00 0.00 0.00 85 1017.5
20260901113111 17 230 3.2 8.0 0.00 0.00 0.00 86 1017.4
20260901111549 16 226 3.2 8.0 0.00 0.00 0.00 88 1017.5
20260901104545 15 260 1.6 4.8 0.00 0.00 0.00 91 1017.4
20260901103037 14 272 1.6 3.2 0.00 0.00 0.00 92 1017.5
20260901101559 12 15 0.0 0.0 0.00 0.00 0.00 93 1017.4
20260901100037 11 14 0.0 1.6 0.00 0.00 0.00 92 1017.4
20260901094535 11 13 0.0 1.6 0.00 0.00 0.00 93 1017.3
20260901093035 11 13 0.0 0.0 0.00 0.00 0.00 92 1017.2
20260901091533 12 13 0.0 0.0 0.00 0.00 0.00 92 1017.1
20260901090034 12 13 0.0 0.0 0.00 0.00 0.00 92 1017.0
20260901084539 12 13 0.0 1.6 0.00 0.05 0.00 91 1016.8
20260901083035 13 260 0.0 1.6 0.00 0.05 0.00 91 1016.7
20260901081528 13 263 0.0 4.8 0.00 0.05 0.00 91 1016.7
20260901080037 13 262 0.0 4.8 0.00 0.05 0.00 91 1016.8
20260901074528 13 288 0.0 3.2 0.00 0.05 0.00 91 1016.8
20260901073028 14 261 0.0 4.8 0.00 0.05 0.00 91 1016.8
20260901071526 14 261 0.0 3.2 0.00 0.05 0.00 91 1017.0
20260901070023 14 269 1.6 4.8 0.00 0.05 0.00 92 1016.8
20260901064526 14 333 0.0 3.2 0.00 0.08 0.00 91 1016.9
20260901063020 14 302 0.0 3.2 0.00 0.08 0.00 91 1016.8
20260901061519 14 324 0.0 1.6 0.00 0.08 0.00 91 1016.8
20260901060018 13 248 0.0 3.2 0.00 0.08 0.00 92 1016.9
20260901054515 13 279 0.0 1.6 0.00 0.13 0.00 92 1016.9
20260901053018 13 278 0.0 1.6 0.00 0.13 0.00 92 1016.7
20260901051513 11 23 0.0 0.0 0.00 0.13 0.00 92 1016.8
20260901050011 11 23 0.0 1.6 0.00 0.13 0.00 91 1016.8
20260901044514 12 262 0.0 0.0 0.00 0.15 0.00 91 1016.9
20260901043016 12 262 0.0 0.0 0.00 0.15 0.00 90 1017.0
20260901041508 12 265 0.0 3.2 0.00 0.15 0.00 91 1017.1
20260901040007 12 359 0.0 1.6 0.00 0.15 0.00 90 1017.1
20260901034505 13 359 0.0 1.6 0.00 0.20 0.00 90 1017.0
20260901033002 12 1 0.0 1.6 0.00 0.20 0.00 91 1016.9
20260901031600 11 22 0.0 1.6 0.00 0.20 0.00 90 1016.8
20260901030056 12 280 0.0 0.0 0.00 0.20 0.00 90 1016.7
20260901024557 12 281 0.0 0.0 0.00 0.20 0.20 88 1016.8
20260901023050 13 280 0.0 1.6 0.00 0.20 0.20 87 1016.8
20260901021607 13 280 0.0 0.0 0.00 0.20 0.20 87 1016.8
20260901020101 13 280 0.0 0.0 0.00 0.20 0.20 85 1016.9
20260901014548 14 280 0.0 1.6 0.00 0.23 0.20 84 1016.7
20260901013046 14 277 0.0 1.6 0.00 0.23 0.20 84 1016.8
20260901011543 14 277 0.0 0.0 0.00 0.23 0.20 84 1016.7
20260901010043 14 277 0.0 1.6 0.00 0.23 0.20 85 1016.7
20260901004542 14 277 0.0 0.0 0.00 0.23 0.20 84 1016.5
20260901003046 15 277 0.0 1.6 0.00 0.23 0.20 83 1016.5
20260901001555 15 276 0.0 1.6 0.00 0.23 0.20 83 1016.4
20260901000039 15 277 0.0 1.6 0.00 0.23 0.20 82 1016.3
20260831234543 15 277 0.0 0.0 0.00 0.23 0.20 81 1016.0
20260831233043 16 277 0.0 0.0 0.00 0.23 0.20 80 1015.8
20260831231534 16 277 0.0 1.6 0.00 0.23 0.20 79 1015.8
20260831230032 16 277 0.0 1.6 0.00 0.23 0.20 77 1015.7
20260831224530 17 278 0.0 0.0 0.00 0.23 0.20 75 1015.7
20260831223032 17 278 0.0 1.6 0.00 0.23 0.20 72 1015.6
20260831221529 18 297 0.0 3.2 0.00 0.23 0.20 69 1015.5
20260831220029 19 245 0.0 6.4 0.00 0.23 0.20 66 1015.5
20260831214526 20 240 0.0 9.7 0.00 0.23 0.20 64 1015.3
20260831213033 20 332 1.6 8.0 0.00 0.23 0.20 64 1015.2
20260831211523 20 260 1.6 8.0 0.00 0.23 0.20 63 1015.0
20260831210022 21 27 1.6 12.9 0.00 0.23 0.20 60 1014.7
20260831204519 21 262 0.0 14.5 0.00 0.23 0.20 60 1014.5
20260831203020 22 66 0.0 8.0 0.00 0.23 0.20 60 1014.6
20260831201518 22 67 1.6 14.5 0.00 0.23 0.20 61 1014.4
20260831200023 22 46 1.6 16.1 0.00 0.23 0.20 58 1014.3
20260831194531 22 309 1.6 9.7 0.00 0.23 0.20 57 1014.2
20260831193017 23 57 3.2 16.1 0.00 0.23 0.20 53 1014.1
20260831191512 23 346 1.6 12.9 0.00 0.23 0.20 54 1013.9
20260831190013 23 259 1.6 9.7 0.00 0.23 0.20 51 1013.9
20260831184519 23 192 1.6 16.1 0.00 0.23 0.20 53 1013.7
20260831183009 23 6 3.2 12.9 0.00 0.23 0.20 52 1013.7
20260831181516 23 18 3.2 9.7 0.00 0.23 0.20 51 1013.6
20260831180009 23 335 3.2 14.5 0.00 0.23 0.20 51 1013.5
20260831174508 23 44 4.8 11.3 0.00 0.23 0.20 51 1013.6
20260831173006 23 253 1.6 12.9 0.00 0.23 0.20 51 1013.5
20260831171504 23 289 1.6 11.3 0.00 0.23 0.20 54 1013.6
20260831170002 23 53 3.2 11.3 0.00 0.23 0.20 50 1013.4
20260831164501 23 79 4.8 12.9 0.00 0.23 0.20 51 1013.6
20260831163100 23 95 1.6 8.0 0.00 0.23 0.20 52 1013.6
20260831161556 22 277 1.6 14.5 0.00 0.23 0.20 51 1013.5
20260831160055 22 276 3.2 9.7 0.00 0.23 0.20 55 1013.5
20260831154553 22 18 3.2 14.5 0.00 0.23 0.20 55 1013.4
20260831153055 22 296 1.6 12.9 0.00 0.23 0.20 59 1013.3
20260831151558 22 236 3.2 11.3 0.00 0.23 0.20 58 1013.5
20260831150049 21 326 4.8 14.5 0.00 0.23 0.20 56 1013.5
20260831144554 21 41 1.6 9.7 0.00 0.23 0.20 65 1013.6
20260831143044 21 72 1.6 12.9 0.00 0.23 0.20 63 1013.7
20260831141534 21 331 4.8 11.3 0.00 0.23 0.20 64 1013.6
20260831140033 20 289 4.8 11.3 0.00 0.23 0.20 67 1013.5
20260831134528 20 15 1.6 9.7 0.00 0.23 0.20 69 1013.3
20260831133025 19 226 1.6 11.3 0.00 0.23 0.20 73 1013.3
20260831131520 18 353 1.6 12.9 0.00 0.23 0.20 75 1013.2
20260831130021 18 347 3.2 16.1 0.00 0.23 0.20 74 1012.9
20260831124515 18 324 3.2 11.3 0.00 0.23 0.20 76 1012.8
20260831123011 17 82 1.6 12.9 0.00 0.23 0.20 81 1012.8
20260831121510 17 230 0.0 9.7 0.00 0.23 0.20 84 1012.8
20260831120016 17 278 3.2 11.3 0.00 0.23 0.20 86 1012.7